CST,Max TemperatureF,Mean TemperatureF,Min TemperatureF,Max Dew PointF,MeanDew PointF,Min DewpointF,Max Humidity, Mean Humidity, Min Humidity, Max Sea Level PressureIn, Mean Sea Level PressureIn, Min Sea Level PressureIn, Max VisibilityMiles, Mean VisibilityMiles, Min VisibilityMiles, Max Wind SpeedMPH, Mean Wind SpeedMPH, Max Gust SpeedMPH,PrecipitationIn, CloudCover, Events, WindDirDegrees
2013-2-1,25,16,6,14,7,-1,80,68,55,30.50,30.37,30.17,10,10,10,15,6,17,0.00,2,,193
2013-2-2,47,35,23,32,25,14,69,61,53,30.23,30.17,30.10,10,10,10,15,7,20,0.00,3,,276
2013-2-3,47,39,31,30,23,16,76,56,36,30.29,30.12,29.86,10,10,10,17,9,23,0.00,0,,240
2013-2-4,49,36,23,30,26,21,81,63,45,30.00,29.90,29.79,10,9,5,18,9,25,0.00,0,,314
2013-2-5,59,41,22,31,26,20,96,66,35,30.10,30.00,29.92,10,8,5,15,6,21,0.00,0,,281
2013-2-6,60,46,32,40,34,26,82,63,43,30.10,30.00,29.89,10,10,10,21,12,25,0.00,3,,153
2013-2-7,49,40,31,48,41,27,100,83,66,30.19,29.95,29.86,10,5,1,21,10,26,0.87,7,Rain,289
2013-2-8,41,35,29,30,27,24,92,76,60,30.36,30.29,30.22,10,8,5,16,8,20,0.00,4,,81
2013-2-9,47,38,28,38,31,26,100,79,58,30.23,30.04,29.75,10,7,4,22,13,26,0.02,4,Rain,146
2013-2-10,50,43,36,47,36,22,100,75,49,29.92,29.62,29.48,10,7,2,30,19,45,0.06,6,Rain-Thunderstorm,201
2013-2-11,46,38,30,24,22,18,72,55,38,30.18,30.11,29.94,10,10,10,18,8,30,0.00,0,,290
2013-2-12,40,33,26,28,24,20,85,68,50,30.18,30.08,29.98,10,10,9,7,3,8,0.00,2,,222
2013-2-13,54,41,27,27,24,23,78,54,29,29.97,29.88,29.82,10,10,10,17,8,25,0.00,0,,254
2013-2-14,49,42,34,30,26,21,70,54,37,30.18,30.01,29.85,10,10,10,20,10,28,0.00,1,,303
2013-2-15,38,29,20,27,18,6,84,58,32,30.40,30.30,30.19,10,7,0,22,9,29,0.02,5,Fog-Snow,358
2013-2-16,33,26,18,25,21,17,100,76,51,30.34,30.26,30.09,10,6,0,16,7,20,T,5,Fog-Snow,298
2013-2-17,57,42,26,34,27,20,75,58,40,30.07,29.90,29.67,10,10,10,21,11,28,0.00,1,,159
2013-2-18,53,41,28,48,34,15,89,65,41,30.10,29.70,29.53,10,10,6,31,17,41,0.02,5,Rain,271
2013-2-19,36,28,20,17,8,-1,81,52,22,30.38,30.27,30.11,10,10,10,20,9,28,0.00,0,,327
2013-2-20,25,21,16,14,7,1,65,55,45,30.40,30.30,30.20,10,10,10,14,9,18,0.00,4,,69
2013-2-21,27,24,20,27,22,13,100,83,65,30.22,29.84,29.73,10,2,0,30,11,75,0.68,8,Fog-Rain-Snow,80
2013-2-22,27,21,15,24,18,12,100,82,63,30.11,29.97,29.80,10,9,4,16,8,23,T,5,,274
2013-2-23,31,19,6,18,13,4,100,79,58,30.10,30.04,29.99,10,7,2,9,4,12,0.00,0,,192
2013-2-24,44,29,14,26,22,15,100,75,49,30.04,29.99,29.91,10,9,5,14,7,18,0.00,1,,109
2013-2-25,37,33,29,32,29,23,96,80,64,29.96,29.80,29.64,10,5,0,24,14,31,0.12,6,Fog-Snow,39
2013-2-26,33,32,30,32,31,28,100,95,89,29.86,29.66,29.55,6,2,0,28,15,39,0.31,8,Fog-Snow,354
2013-2-27,35,32,28,29,26,23,100,82,64,30.06,29.92,29.82,10,4,1,21,13,26,0.02,7,Snow,313
2013-2-28,32,30,28,27,24,23,85,79,72,30.22,30.16,30.03,10,8,6,21,10,30,0.00,8,,327